This is the latest recevied weather packets stored in our database for station/object W6SNO-1. If no packets are shown the sender has not sent any weather packets the latest 10 day(s).
| Time | Temp. | Humidity | Pressure | Rain* | Wind** | Luminosity | Snow |
|---|---|---|---|---|---|---|---|
| 1778190020 | 21.67° C | 61% | 1017.5 hPa | 0 mm | - | 713 W/m² | - |
| 1778189716 | 21.67° C | 63% | 1017.5 hPa | 0 mm | - | 721 W/m² | - |
| 1778189413 | 22.22° C | 62% | 1017.6 hPa | 0 mm | - | 728 W/m² | - |
| 1778188806 | 21.67° C | 61% | 1017.7 hPa | 0 mm | - | 747 W/m² | - |
| 1778188503 | 21.67° C | 61% | 1017.8 hPa | 0 mm | - | 747 W/m² | - |
| 1778188199 | 21.67° C | 62% | 1017.7 hPa | 0 mm | - | 756 W/m² | - |
| 1778187896 | 21.67° C | 62% | 1017.7 hPa | 0 mm | - | 762 W/m² | - |
| 1778187593 | 21.11° C | 63% | 1018 hPa | 0 mm | - | 766 W/m² | - |
| 1778187290 | 21.67° C | 63% | 1018 hPa | 0 mm | - | 772 W/m² | - |
| 1778186986 | 21.67° C | 62% | 1018.1 hPa | 0 mm | - | 779 W/m² | - |
| 1778186682 | 21.11° C | 64% | 1018.1 hPa | 0 mm | - | 787 W/m² | - |
| 1778186380 | 20.56° C | 65% | 1018.2 hPa | 0 mm | - | 789 W/m² | - |
| 1778186078 | 21.11° C | 64% | 1018.3 hPa | 0 mm | - | 789 W/m² | - |
| 1778185774 | 20.56° C | 65% | 1018.1 hPa | 0 mm | - | 788 W/m² | - |
| 1778185471 | 20.56° C | 65% | 1018.2 hPa | 0 mm | - | 789 W/m² | - |
| 1778185166 | 20° C | 67% | 1018.2 hPa | 0 mm | - | 790 W/m² | - |
| 1778184862 | 20° C | 68% | 1018.3 hPa | 0 mm | - | 794 W/m² | - |
| 1778184559 | 20° C | 68% | 1018.3 hPa | 0 mm | - | 791 W/m² | - |
| 1778184254 | 19.44° C | 69% | 1018.3 hPa | 0 mm | - | 798 W/m² | - |
| 1778183950 | 19.44° C | 69% | 1018.5 hPa | 0 mm | - | 798 W/m² | - |
| 1778183648 | 19.44° C | 69% | 1018.6 hPa | 0 mm | - | 797 W/m² | - |
| 1778183345 | 18.89° C | 71% | 1018.6 hPa | 0 mm | - | 796 W/m² | - |
| 1778183041 | 19.44° C | 70% | 1018.7 hPa | 0 mm | - | 796 W/m² | - |
| 1778182737 | 19.44° C | 69% | 1018.6 hPa | 0 mm | - | 791 W/m² | - |
| 1778182435 | 18.89° C | 71% | 1018.9 hPa | 0 mm | - | 790 W/m² | - |
* Rain latest hour (hover to see other rain measurements)
** Current wind speed in m/s (hover to see current wind gust speed)